DW8750 Weather Reports


Display with metric or nautical units.
time (UTC)temp
F
wind
direction
speed
MPH
gust
MPH
rain 1hr
in
rain 24hr
in
rain mn
in
humidity
%
barometer
mb
20260901200941 83 233 0.0 1.0 0.00 0.00 0.00 74 1019.1
20260901195945 82 233 1.0 3.0 0.00 0.00 0.00 74 1019.1
20260901194940 82 190 1.0 3.0 0.00 0.00 0.00 73 1019.2
20260901193938 83 190 2.0 4.0 0.00 0.00 0.00 73 1019.1
20260901192938 83 13 0.0 2.0 0.00 0.00 0.00 73 1019.0
20260901190938 83 13 1.0 3.0 0.00 0.00 0.00 72 1018.9
20260901185938 83 13 0.0 1.0 0.00 0.00 0.00 72 1018.8
20260901184941 83 13 0.0 2.0 0.00 0.00 0.00 72 1018.8
20260901183938 83 13 0.0 2.0 0.00 0.00 0.00 72 1018.7
20260901182941 83 13 0.0 2.0 0.00 0.00 0.00 72 1018.6
20260901181938 83 13 0.0 1.0 0.00 0.00 0.00 72 1018.4
20260901175939 84 13 0.0 1.0 0.00 0.00 0.00 71 1018.4
20260901174934 84 13 0.0 3.0 0.00 0.00 0.00 70 1018.2
20260901172931 85 13 1.0 4.0 0.00 0.00 0.00 69 1018.2
20260901171929 85 13 2.0 4.0 0.00 0.00 0.00 69 1018.1
20260901170930 85 13 3.0 4.0 0.00 0.00 0.00 68 1018.1
20260901165933 85 24 2.0 4.0 0.00 0.00 0.00 68 1018.0
20260901164929 85 30 2.0 5.0 0.00 0.00 0.00 67 1018.1
20260901163928 86 30 2.0 5.0 0.00 0.00 0.00 67 1018.0
20260901162928 86 16 3.0 6.0 0.00 0.00 0.00 66 1018.1
20260901161927 86 338 4.0 8.0 0.00 0.00 0.00 66 1018.1
20260901160928 87 9 3.0 8.0 0.00 0.00 0.00 65 1018.0
20260901154930 87 344 4.0 7.0 0.00 0.00 0.00 64 1018.0
20260901150932 87 9 5.0 8.0 0.00 0.00 0.00 64 1018.1
20260901145929 87 340 4.0 8.0 0.00 0.00 0.00 64 1018.0
20260901143930 87 5 4.0 9.0 0.00 0.00 0.00 63 1018.1
20260901142934 87 23 5.0 9.0 0.00 0.00 0.00 62 1018.0
20260901141932 87 355 6.0 10.0 0.00 0.00 0.00 63 1018.0
20260901140933 87 24 7.0 12.0 0.00 0.00 0.00 62 1017.9
20260901135927 87 13 7.0 11.0 0.00 0.00 0.00 62 1018.0
20260901134935 87 340 7.0 11.0 0.00 0.00 0.00 62 1018.0
20260901133929 88 351 7.0 11.0 0.00 0.00 0.00 61 1017.9
20260901132927 88 355 6.0 12.0 0.00 0.00 0.00 59 1018.0
20260901131926 88 26 6.0 11.0 0.00 0.00 0.00 59 1017.9
20260901130925 88 5 7.0 11.0 0.00 0.00 0.00 58 1018.0
20260901124930 89 338 5.0 11.0 0.00 0.00 0.00 57 1018.0
20260901123927 89 0 6.0 12.0 0.00 0.00 0.00 55 1018.0
20260901121927 89 355 7.0 12.0 0.00 0.00 0.00 53 1018.2
20260901120925 89 5 7.0 12.0 0.00 0.00 0.00 54 1018.2
20260901113923 89 21 6.0 12.0 0.00 0.00 0.00 55 1018.2
20260901112923 88 10 6.0 11.0 0.00 0.00 0.00 57 1018.2
20260901111926 88 21 6.0 11.0 0.00 0.00 0.00 53 1018.2
20260901105922 87 345 6.0 12.0 0.00 0.00 0.00 55 1018.3
20260901104925 88 18 5.0 10.0 0.00 0.00 0.00 58 1018.3
20260901103923 87 55 4.0 10.0 0.00 0.00 0.00 59 1018.4
20260901102923 87 190 5.0 10.0 0.00 0.00 0.00 61 1018.4
20260901100923 86 339 6.0 11.0 0.00 0.00 0.00 64 1018.4
20260901095923 86 301 7.0 14.0 0.00 0.00 0.00 63 1018.4
20260901094923 86 344 6.0 13.0 0.00 0.00 0.00 64 1018.4
20260901092930 86 46 6.0 11.0 0.00 0.00 0.00 65 1018.4
20260901091924 85 337 6.0 12.0 0.00 0.00 0.00 65 1018.4
20260901090926 85 310 6.0 12.0 0.00 0.00 0.00 66 1018.4
20260901085923 86 345 5.0 11.0 0.00 0.00 0.00 66 1018.4
20260901084921 85 355 5.0 11.0 0.00 0.00 0.00 67 1018.4
20260901082922 84 297 5.0 12.0 0.00 0.00 0.00 69 1018.4
20260901080921 84 355 6.0 10.0 0.00 0.00 0.00 69 1018.3
20260901075921 84 321 4.0 10.0 0.00 0.00 0.00 70 1018.2
20260901074921 84 344 6.0 11.0 0.00 0.00 0.00 70 1018.2
20260901073921 84 34 5.0 11.0 0.00 0.00 0.00 70 1018.1
20260901072923 84 325 6.0 11.0 0.00 0.00 0.00 70 1018.2
20260901071917 84 29 4.0 9.0 0.00 0.00 0.00 71 1018.2
20260901070912 83 5 4.0 9.0 0.00 0.00 0.00 72 1018.0
20260901064917 84 0 4.0 8.0 0.00 0.00 0.00 72 1018.0
20260901063918 84 15 4.0 8.0 0.00 0.00 0.00 70 1018.1
20260901062916 84 319 2.0 7.0 0.00 0.00 0.00 71 1017.9
20260901061914 84 322 2.0 4.0 0.00 0.00 0.00 71 1017.9
20260901060913 83 266 1.0 4.0 0.00 0.00 0.00 71 1018.0
20260901055912 82 162 1.0 3.0 0.00 0.00 0.00 72 1018.1
20260901054912 81 230 1.0 3.0 0.00 0.00 0.00 73 1018.1
20260901053912 80 216 2.0 4.0 0.00 0.00 0.00 74 1018.0
20260901052912 80 229 3.0 5.0 0.00 0.00 0.00 75 1018.0
20260901051917 79 211 2.0 4.0 0.00 0.00 0.00 76 1017.9
20260901045912 79 196 3.0 5.0 0.00 0.00 0.00 76 1017.8
20260901044914 79 219 2.0 4.0 0.00 0.00 0.00 76 1017.7
20260901043913 79 209 3.0 5.0 0.00 0.00 0.00 76 1017.5
20260901042915 79 208 3.0 5.0 0.00 0.00 0.00 76 1017.5
20260901041914 79 232 3.0 4.0 0.00 0.00 0.00 76 1017.4
20260901040912 80 229 3.0 5.0 0.00 0.00 0.00 75 1017.4
20260901034912 80 199 4.0 6.0 0.00 0.00 0.00 75 1017.4
20260901033912 80 240 3.0 5.0 0.00 0.00 0.00 75 1017.5
20260901032914 80 211 4.0 6.0 0.00 0.00 0.00 75 1017.5
20260901031912 80 223 4.0 6.0 0.00 0.00 0.00 75 1017.6
20260901030912 80 223 3.0 7.0 0.00 0.00 0.00 75 1017.7
20260901024914 80 225 5.0 8.0 0.00 0.00 0.00 76 1017.8
20260901023908 80 219 4.0 7.0 0.00 0.00 0.00 76 1017.8
20260901022857 80 209 4.0 6.0 0.00 0.00 0.00 76 1017.8
20260901021858 80 215 3.0 5.0 0.00 0.00 0.00 76 1017.8
20260901020856 80 240 5.0 7.0 0.00 0.00 0.00 75 1017.8
20260901015855 80 266 5.0 10.0 0.00 0.00 0.00 76 1017.7
20260901014856 80 254 3.0 7.0 0.00 0.00 0.00 77 1017.9
20260901013859 80 215 1.0 4.0 0.00 0.00 0.00 78 1017.7
20260901012859 80 227 3.0 5.0 0.00 0.00 0.00 79 1017.9
20260901011853 80 227 3.0 4.0 0.00 0.00 0.00 79 1017.9
20260901010854 80 216 2.0 4.0 0.00 0.00 0.00 79 1018.0
20260901005853 80 213 2.0 4.0 0.00 0.00 0.00 79 1017.9
20260901004853 80 221 3.0 5.0 0.00 0.00 0.00 80 1017.8
20260901003855 80 209 2.0 4.0 0.00 0.00 0.00 80 1017.7
20260901002853 80 209 3.0 5.0 0.00 0.00 0.00 80 1017.7
20260901001855 80 206 2.0 4.0 0.00 0.00 0.00 80 1017.7
20260901000854 80 207 2.0 5.0 0.00 0.00 0.00 80 1017.6
20260831235854 80 210 2.0 4.0 0.00 0.00 0.00 80 1017.3
20260831234854 80 209 3.0 4.0 0.00 0.00 0.00 79 1017.3
20260831233851 80 222 2.0 4.0 0.00 0.00 0.00 79 1017.4
20260831232851 81 223 2.0 4.0 0.00 0.00 0.00 79 1017.3
20260831231849 81 32 2.0 4.0 0.00 0.00 0.00 79 1017.3
20260831230847 81 32 2.0 4.0 0.00 0.00 0.00 79 1017.3
20260831225855 81 32 2.0 4.0 0.00 0.00 0.00 78 1017.3
20260831224842 82 32 2.0 4.0 0.00 0.00 0.00 78 1017.4
20260831223849 82 32 2.0 3.0 0.00 0.00 0.00 78 1017.3
20260831222846 82 32 0.0 0.0 0.00 0.00 0.00 77 1017.4
20260831221850 82 32 0.0 0.0 0.00 0.00 0.00 77 1017.4
20260831220845 82 32 0.0 0.0 0.00 0.00 0.00 77 1017.5
20260831215841 82 32 0.0 0.0 0.00 0.00 0.00 77 1017.6
20260831214846 82 32 0.0 0.0 0.00 0.00 0.00 77 1017.6
20260831213843 83 32 0.0 0.0 0.00 0.00 0.00 77 1017.6
20260831212839 83 32 0.0 0.0 0.00 0.00 0.00 77 1017.5
20260831210837 83 32 0.0 0.0 0.00 0.00 0.00 77 1017.4
20260831205837 83 32 0.0 0.0 0.00 0.00 0.00 77 1017.3
20260831203840 83 32 0.0 0.0 0.00 0.00 0.00 77 1017.3
20260831201834 83 32 0.0 0.0 0.00 0.00 0.00 77 1017.2